Bad Axe, MI

3:45 PM EDT on October 22, 2017 (GMT -0400)
Huron County Memorial

Weather History for KBAX - January, 2013

Change the Weather History Date:

Wednesday, January 23, 2013

  Actual Average (KP58) Record (KP58)
Temperature  
Mean Temperature 7 °F -  
Max Temperature 14 °F 25 °F 46 °F (2012)
Min Temperature 0 °F 14 °F -2 °F (2004)
Degree Days  
Heating Degree Days 58    
Moisture  
Dew Point 2 °F    
Average Humidity 76    
Maximum Humidity 86    
Minimum Humidity 61    
Precipitation  
Precipitation 0.00 in - - ()
Sea Level Pressure  
Sea Level Pressure 30.13 in    
Wind  
Wind Speed 6 mph (WSW)    
Max Wind Speed 16 mph    
Max Gust Speed 22 mph    
Visibility 8 miles    
Events Snow    
Averages and records for this station are not official NWS values.
T = Trace of Precipitation, MM = Missing Value Source: NWS Daily Summary

Daily Weather History Graph

Daily Weather History Graph

Search for Another Location

Airport or City:

Trip Planner

Search our weather history database for the weather conditions in past years. The results will help you decide how hot, cold, wet, or windy it might be!

Date:

Astronomy

Jan. 23, 2013 Rise Set
Actual Time 7:57 AM EST 5:31 PM EST
Civil Twilight 7:25 AM EST 6:02 PM EST
Nautical Twilight 6:50 AM EST 6:37 PM EST
Astronomical Twilight 6:16 AM EST 7:11 PM EST
Moon 2:39 PM EST (1/23) 5:09 AM EST (1/23)
Length of Visible Light 10h 36m
Length of Day
9h 33m
Waxing Gibbous, 89% of the Moon is Illuminated
Jan 23
Waxing Gibbous
Jan 26
Full
Feb 3
Last Quarter
Feb 10
New
Feb 17
First Quarter

Hourly Weather History & Observations

Time (EST) Temp. Windchill Dew Point Humidity Pressure Visibility Wind Dir Wind Speed Gust Speed Precip Events Conditions
12:14 AM -0.6 °F -8.5 °F -8.0 °F 71% 30.21 in 10.0 mi West 3.5 mph - N/A   Clear
12:34 AM -0.4 °F -8.3 °F -7.6 °F 72% 30.21 in 10.0 mi West 3.5 mph - N/A   Clear
12:54 AM -0.0 °F - -7.1 °F 72% 30.21 in 10.0 mi Calm Calm - N/A   Clear
1:14 AM -0.4 °F -8.3 °F -7.6 °F 72% 30.20 in 10.0 mi WSW 3.5 mph - N/A   Clear
1:34 AM -0.9 °F -11.0 °F -7.4 °F 74% 30.21 in 10.0 mi WSW 4.6 mph - N/A   Mostly Cloudy
1:53 AM 0.3 °F -9.5 °F -6.2 °F 74% 30.21 in 10.0 mi SW 4.6 mph - N/A   Mostly Cloudy
2:14 AM 0.1 °F -9.7 °F -6.0 °F 75% 30.21 in 10.0 mi SW 4.6 mph - N/A   Mostly Cloudy
2:34 AM 0.5 °F -7.3 °F -5.8 °F 75% 30.21 in 10.0 mi WSW 3.5 mph - N/A   Overcast
2:53 AM 1.0 °F -6.7 °F -4.9 °F 76% 30.21 in 10.0 mi SW 3.5 mph - N/A   Overcast
3:14 AM 1.4 °F -8.3 °F -4.4 °F 77% 30.21 in 10.0 mi SW 4.6 mph - N/A   Overcast
3:34 AM 1.8 °F -9.5 °F -4.2 °F 76% 30.21 in 10.0 mi WSW 5.8 mph - N/A   Overcast
3:54 AM 1.0 °F -10.3 °F -4.9 °F 76% 30.20 in 10.0 mi WSW 5.8 mph - N/A   Scattered Clouds
4:14 AM 0.9 °F -8.9 °F -4.9 °F 77% 30.20 in 10.0 mi WSW 4.6 mph - N/A   Scattered Clouds
4:33 AM 1.0 °F -10.3 °F -4.2 °F 79% 30.20 in 10.0 mi WSW 5.8 mph - N/A   Scattered Clouds
4:54 AM 1.4 °F -8.3 °F -4.0 °F 78% 30.19 in 10.0 mi WSW 4.6 mph - N/A   Scattered Clouds
5:14 AM 1.6 °F -9.7 °F -3.5 °F 79% 30.19 in 10.0 mi WSW 5.8 mph - N/A   Scattered Clouds
5:34 AM 1.2 °F -10.1 °F -3.8 °F 79% 30.18 in 10.0 mi WSW 5.8 mph - N/A   Clear
5:54 AM 2.1 °F -9.0 °F -3.1 °F 79% 30.19 in 10.0 mi WSW 5.8 mph - N/A   Clear
6:14 AM 2.3 °F -10.2 °F -2.7 °F 79% 30.19 in 10.0 mi WSW 6.9 mph - N/A   Clear
6:34 AM 2.7 °F -9.7 °F -2.6 °F 79% 30.18 in 10.0 mi WSW 6.9 mph - N/A   Clear
6:54 AM 3.0 °F -10.5 °F -2.2 °F 79% 30.18 in 10.0 mi WSW 8.1 mph - N/A   Clear
7:15 AM 3.6 °F -10.9 °F -1.8 °F 78% 30.19 in 10.0 mi WSW 9.2 mph - N/A   Clear
7:34 AM 3.7 °F -9.6 °F -1.7 °F 78% 30.18 in 10.0 mi WSW 8.1 mph - N/A   Mostly Cloudy
7:54 AM 3.7 °F -8.4 °F -1.5 °F 79% 30.18 in 10.0 mi WSW 6.9 mph - N/A   Mostly Cloudy
8:15 AM 3.7 °F -8.4 °F -1.8 °F 78% 30.17 in 10.0 mi SSW 6.9 mph - N/A   Mostly Cloudy
8:34 AM 3.7 °F -8.4 °F -1.8 °F 78% 30.17 in 10.0 mi SW 6.9 mph - N/A   Overcast
8:54 AM 4.1 °F -8.0 °F -1.5 °F 78% 30.17 in 10.0 mi SW 6.9 mph - N/A   Scattered Clouds
9:14 AM 5.0 °F -9.1 °F -1.3 °F 75% 30.17 in 10.0 mi WSW 9.2 mph - N/A   Clear
9:34 AM 5.5 °F -10.2 °F -1.1 °F 74% 30.17 in 10.0 mi WSW 11.5 mph - N/A   Clear
9:54 AM 7.0 °F -5.7 °F -0.8 °F 71% 30.18 in 10.0 mi SW 8.1 mph - N/A   Clear
10:14 AM 7.2 °F -8.1 °F -1.5 °F 68% 30.17 in 10.0 mi SW 11.5 mph - N/A   Scattered Clouds
10:34 AM 8.2 °F -3.0 °F -1.1 °F 66% 30.17 in 10.0 mi SW 6.9 mph - N/A   Clear
10:54 AM 9.3 °F -7.4 °F -0.9 °F 63% 30.16 in 10.0 mi SW 15.0 mph 18.4 mph N/A   Clear
11:14 AM 10.0 °F -7.1 °F -0.9 °F 61% 30.15 in 10.0 mi WSW 16.1 mph 21.9 mph N/A   Scattered Clouds
11:34 AM 10.8 °F -4.3 °F -0.0 °F 62% 30.15 in 10.0 mi WSW 12.7 mph 18.4 mph N/A   Scattered Clouds
11:54 AM 10.9 °F -5.9 °F 0.5 °F 63% 30.14 in 10.0 mi WSW 16.1 mph 20.7 mph N/A   Clear
12:14 PM 10.8 °F -4.3 °F 1.2 °F 65% 30.14 in 10.0 mi WSW 12.7 mph 20.7 mph N/A   Mostly Cloudy
12:34 PM 11.3 °F -3.6 °F 2.5 °F 68% 30.13 in 10.0 mi WSW 12.7 mph - N/A   Overcast
12:54 PM 11.8 °F -4.2 °F 2.8 °F 67% 30.12 in 10.0 mi WSW 15.0 mph 18.4 mph N/A   Overcast
1:14 PM 11.8 °F -4.2 °F 1.8 °F 64% 30.10 in 10.0 mi WSW 15.0 mph 20.7 mph N/A   Mostly Cloudy
1:34 PM 12.2 °F -3.1 °F 2.8 °F 66% 30.09 in 10.0 mi WSW 13.8 mph - N/A   Mostly Cloudy
1:55 PM 12.6 °F -1.4 °F 1.9 °F 63% 30.08 in 10.0 mi West 11.5 mph 19.6 mph N/A   Mostly Cloudy
2:14 PM 12.9 °F -0.2 °F 2.8 °F 64% 30.07 in 10.0 mi WSW 10.4 mph 19.6 mph N/A   Overcast
2:34 PM 12.9 °F -1.6 °F 4.1 °F 68% 30.07 in 3.0 mi WSW 12.7 mph 17.3 mph N/A   Haze
2:55 PM 13.1 °F -0.7 °F 4.8 °F 70% 30.07 in 4.0 mi WSW 11.5 mph 18.4 mph N/A   Haze
3:14 PM 13.8 °F 1.8 °F 5.9 °F 71% 30.07 in 5.0 mi WSW 9.2 mph - N/A   Haze
3:34 PM 13.5 °F 3.3 °F 5.4 °F 70% 30.06 in 7.0 mi SW 6.9 mph - N/A   Overcast
4:14 PM 13.8 °F 2.7 °F 6.6 °F 73% 30.05 in 4.0 mi SW 8.1 mph - N/A Snow Light Snow
4:35 PM 14.0 °F 5.1 °F 7.3 °F 75% 30.05 in 7.0 mi SW 5.8 mph - N/A Snow Light Snow
4:54 PM 13.8 °F 1.8 °F 6.6 °F 73% 30.05 in 7.0 mi WSW 9.2 mph - N/A Snow Light Snow
5:15 PM 13.6 °F 1.6 °F 6.4 °F 73% 30.05 in 7.0 mi WSW 9.2 mph - N/A   Overcast
5:34 PM 13.6 °F 3.5 °F 7.0 °F 75% 30.05 in 7.0 mi WSW 6.9 mph - N/A   Overcast
5:54 PM 13.1 °F 2.8 °F 6.6 °F 75% 30.06 in 7.0 mi West 6.9 mph - N/A   Overcast
6:15 PM 13.1 °F 7.1 °F 7.5 °F 78% 30.06 in 7.0 mi West 3.5 mph - N/A   Overcast
6:34 PM 13.1 °F 7.1 °F 8.1 °F 80% 30.06 in 2.5 mi WSW 3.5 mph - N/A Snow Light Snow
6:54 PM 13.1 °F 7.1 °F 9.0 °F 84% 30.06 in 3.0 mi West 3.5 mph - N/A Snow Light Snow
7:15 PM 13.1 °F - 9.3 °F 85% 30.06 in 2.0 mi Calm Calm - N/A Snow Light Snow
7:34 PM 12.7 °F - 9.1 °F 86% 30.06 in 2.0 mi Calm Calm - N/A Snow Light Snow
7:55 PM 12.7 °F - 9.3 °F 86% 30.06 in 4.0 mi Calm Calm - N/A Snow Light Snow
8:14 PM 13.1 °F - 9.5 °F 86% 30.06 in 4.0 mi Calm Calm - N/A Snow Light Snow
8:34 PM 13.1 °F - 9.5 °F 86% 30.06 in 3.0 mi Calm Calm - N/A Snow Light Snow
8:55 PM 13.1 °F - 9.5 °F 86% 30.06 in 3.0 mi Calm Calm - N/A Snow Light Snow
9:14 PM 13.1 °F 7.1 °F 9.5 °F 86% 30.06 in 4.0 mi WNW 3.5 mph - N/A Snow Light Snow
9:35 PM 13.1 °F - 9.5 °F 86% 30.07 in 5.0 mi Calm Calm - N/A   Overcast
9:55 PM 12.9 °F 6.9 °F 9.5 °F 86% 30.07 in 7.0 mi West 3.5 mph - N/A   Overcast
10:14 PM 12.9 °F 5.2 °F 9.5 °F 86% 30.07 in 4.0 mi West 4.6 mph - N/A Snow Light Snow
10:35 PM 12.7 °F 3.6 °F 9.3 °F 86% 30.07 in 7.0 mi West 5.8 mph - N/A Snow Light Snow
10:54 PM 12.2 °F 0.7 °F 8.6 °F 85% 30.08 in 10.0 mi WNW 8.1 mph - N/A Snow Light Snow
11:14 PM 12.0 °F 2.7 °F 8.4 °F 85% 30.08 in 7.0 mi WNW 5.8 mph - N/A   Overcast
11:34 PM 12.2 °F 2.9 °F 8.6 °F 85% 30.09 in 7.0 mi WNW 5.8 mph - N/A Snow Light Snow
11:54 PM 12.6 °F 3.4 °F 9.0 °F 85% 30.10 in 2.5 mi WNW 5.8 mph - N/A Snow Light Snow